Date/Time (UTC),ProbHail,ProbWind,ProbTor,MESH,VIL Density,Flash Rate,Max Flash Density,LJA sigma-level,Max 0-2km AzShear,LLAZ 98th%,MLAZ 98th%,MUCAPE,MLCAPE,CAPE -10C to -30C,MLCIN,SRH 0-1km AGL,EBShear,MeanWind 0-1km AGL,Norm. Sat. Growth Rate,PWAT,WBZ,AvgBeamHgt,size
2020/03/27 18:04,3,3,0,0.48,1.5,1,0.07,0.0,2,2,3,2020,392,477,211,0,73.4,14.2,0,1.0,11.2,2.2,59
2020/03/27 18:06,3,3,0,0.48,1.5,1,0.07,0.0,3,3,5,1923,349,465,208,0,70.6,14.2,0,1.0,11.0,2.0,78
2020/03/27 18:08,12,8,0,0.6,1.5,10,0.51,0.0,3,3,5,1873,344,461,206,0,70.3,14.2,0,1.1,11.0,1.9,110
2020/03/27 18:10,20,11,0,0.74,1.8,10,0.51,0.0,4,3,5,1817,339,462,204,0,70.3,14.2,0,1.1,11.0,1.7,202
2020/03/27 18:12,20,11,0,0.75,1.9,10,0.51,0.0,5,4,5,1765,322,465,205,1,70.2,14.2,0,1.1,11.0,1.6,212
2020/03/27 18:14,20,11,0,0.75,1.9,10,0.51,0.0,5,4,7,1747,317,472,205,1,70.4,14.2,0,1.1,11.0,1.6,206
2020/03/27 18:16,20,11,0,0.75,1.9,9,0.51,0.0,5,4,7,1748,320,472,204,1,70.4,14.2,0,1.1,11.0,1.6,215
2020/03/27 18:18,8,6,0,0.5,1.5,5,0.51,0.0,4,3,4,1716,296,482,207,2,70.4,14.2,0,1.1,11.0,1.5,202
2020/03/27 18:20,14,7,0,0.59,2.2,5,0.51,0.0,6,4,7,1669,290,503,205,3,71.6,14.2,0,1.1,11.0,1.4,201
2020/03/27 18:22,6,4,0,0.59,2.2,2,0.51,0.0,6,4,7,1651,285,505,204,4,72.2,14.2,0,1.1,11.0,1.4,278
2020/03/27 18:24,6,4,0,0.59,2.5,2,0.51,0.0,5,4,8,1638,289,511,200,4,72.9,14.2,0,1.1,11.0,1.4,214
2020/03/27 18:26,6,4,0,0.59,2.5,2,0.51,0.0,5,4,8,1633,288,510,199,5,73.0,14.2,0,1.1,11.0,1.4,254
2020/03/27 18:28,5,4,0,0.53,2.5,1,0.51,0.0,5,4,7,1633,305,512,193,4,73.3,14.2,0,1.1,11.0,1.4,223
2020/03/27 18:30,3,3,0,0.44,1.8,1,0.51,0.0,5,4,7,1633,305,512,193,4,73.3,14.2,0,1.1,11.0,1.4,223
2020/03/27 18:32,3,3,0,0.44,1.5,1,0.51,0.0,5,4,4,1635,313,511,188,5,73.3,14.1,0,1.0,11.0,1.5,241
2020/03/27 18:34,4,4,0,0.27,1.5,3,0.51,0.0,3,3,6,1663,373,514,177,5,73.0,13.8,0,1.0,11.1,1.6,244
2020/03/27 18:36,5,4,0,0.27,1.5,3,0.51,0.0,3,2,5,1671,393,517,175,5,72.8,13.7,0,1.1,11.1,1.6,283
2020/03/27 18:38,5,4,0,0.27,1.3,3,0.51,0.0,2,2,5,1671,393,517,175,5,72.8,13.7,0,1.1,11.1,1.6,283
2020/03/27 18:40,6,4,0,0.3,1.3,4,0.27,0.0,4,2,4,1711,451,521,171,6,72.8,13.3,0,1.1,11.1,1.8,328
2020/03/27 18:42,6,4,0,0.3,1.3,4,0.12,0.0,3,2,4,1761,500,527,168,5,72.7,13.0,0,1.1,11.1,1.8,249
2020/03/27 18:44,6,4,0,0.3,1.2,4,0.15,0.0,3,2,4,1843,559,535,167,7,73.0,13.0,0,1.1,11.1,2.1,256
2020/03/27 18:46,4,4,0,0.2,1.2,6,0.15,0.0,3,2,4,1916,678,543,163,6,73.3,13.0,0,1.1,11.1,2.3,225
2020/03/27 18:48,8,5,0,0.44,1.0,6,0.15,0.0,3,2,4,1934,691,546,163,7,73.8,13.1,0,1.1,11.1,2.4,273
2020/03/27 18:50,8,5,0,0.44,1.4,6,0.15,0.0,3,2,4,1952,724,548,161,6,74.1,13.1,0,1.1,11.1,2.5,282
2020/03/27 18:52,10,5,0,0.44,1.4,6,0.15,0.0,3,2,4,2019,779,556,158,6,77.0,13.2,0,1.1,11.2,2.8,301
2020/03/27 18:54,11,6,0,0.46,1.4,6,0.15,0.0,2,2,4,2023,1040,593,88,13,79.9,14.3,0,1.3,11.9,2.8,180
2020/03/27 18:56,12,6,0,0.46,1.4,6,0.22,0.0,4,2,4,2071,927,595,91,19,81.8,14.3,0,1.3,11.6,3.1,240
2020/03/27 18:58,21,7,0,0.56,1.8,6,0.22,0.0,5,3,5,2083,1065,601,82,15,81.2,14.3,0,1.3,11.5,3.2,316
2020/03/27 19:00,23,7,0,0.56,1.8,6,0.22,0.0,4,3,5,2110,1100,606,81,15,81.4,14.4,0,1.3,11.4,3.5,254
2020/03/27 19:02,23,8,0,0.56,1.8,10,0.26,2.5,5,4,5,2111,1149,605,83,15,80.7,14.5,0,1.3,11.3,3.7,445
2020/03/27 19:04,13,6,0,0.44,1.3,12,0.26,0.8,5,4,4,2125,1330,607,82,7,79.5,14.5,0,1.3,11.4,3.9,241
2020/03/27 19:06,13,6,0,0.44,1.3,12,0.35,0.0,5,4,4,2142,1329,603,86,6,79.3,14.6,0,1.3,11.4,4.0,221
2020/03/27 19:08,12,6,0,0.44,1.0,12,0.37,1.4,4,3,3,2135,1261,590,95,8,78.8,14.6,0,1.3,11.3,4.4,264
2020/03/27 19:10,8,5,0,0.33,1.3,12,0.37,0.0,4,3,4,2118,1349,584,95,6,78.6,14.6,0,1.3,11.4,4.5,301
2020/03/27 19:12,11,6,0,0.33,1.3,24,0.44,4.7,4,3,4,2099,1440,578,102,7,77.9,14.8,0,1.3,11.4,4.8,260
2020/03/27 19:14,11,6,0,0.33,1.3,24,0.44,0.0,4,3,3,2099,1440,578,102,7,77.9,14.8,0,1.3,11.4,4.8,260
2020/03/27 19:16,9,5,0,0.26,1.1,24,0.44,0.8,4,2,4,2069,1462,575,104,7,77.4,14.9,0,1.4,11.3,4.9,428
2020/03/27 19:18,13,7,0,0.39,1.6,24,0.62,0.4,3,2,4,2064,1467,573,105,7,77.4,15.0,0,1.4,11.3,4.7,253
2020/03/27 19:20,13,7,0,0.39,1.6,21,0.62,0.0,3,2,4,2064,1466,573,105,8,77.4,15.0,0,1.4,11.3,4.7,263
2020/03/27 19:22,13,7,0,0.39,1.6,21,0.62,0.0,3,2,4,2049,1420,571,109,8,77.2,15.0,0,1.4,11.3,4.7,429
